DW1973 Weather Reports


Display with metric or nautical units.
time (UTC)temp
F
wind
direction
speed
MPH
gust
MPH
rain 1hr
in
rain 24hr
in
rain mn
in
humidity
%
barometer
mb
20260506212419 56 16 4.0 9.0 0.00 0.00 0.00 41 1013.1
20260506211928 56 29 3.0 6.0 0.00 0.00 0.00 42 1012.8
20260506211419 55 17 4.0 10.0 0.00 0.00 0.00 42 1013.1
20260506210928 55 16 4.0 10.0 0.00 0.00 0.00 41 1013.1
20260506210436 55 17 4.0 10.0 0.00 0.00 0.00 42 1013.1
20260506205944 56 16 6.0 10.0 0.00 0.00 0.00 40 1013.2
20260506205426 56 19 5.0 10.0 0.00 0.00 0.00 41 1013.2
20260506204915 56 16 5.0 8.0 0.00 0.00 0.00 41 1013.0
20260506204429 55 16 3.0 6.0 0.00 0.00 0.00 40 1013.1
20260506203916 56 16 4.0 10.0 0.00 0.00 0.00 39 1013.3
20260506203426 56 17 4.0 10.0 0.00 0.00 0.00 38 1013.2
20260506202916 56 15 4.0 10.0 0.00 0.00 0.00 39 1013.2
20260506202424 56 17 5.0 13.0 0.00 0.00 0.00 38 1013.5
20260506201913 56 17 5.0 13.0 0.00 0.00 0.00 41 1013.5
20260506201424 56 20 3.0 11.0 0.00 0.00 0.00 40 1013.3
20260506200915 56 23 5.0 11.0 0.00 0.00 0.00 38 1013.5
20260506200422 56 17 5.0 9.0 0.00 0.00 0.00 39 1013.5
20260506195934 56 16 3.0 11.0 0.00 0.00 0.00 40 1013.5
20260506195443 56 16 6.0 16.0 0.00 0.00 0.00 38 1013.5
20260506194929 56 16 4.0 16.0 0.00 0.00 0.00 40 1013.5
20260506194437 55 15 4.0 9.0 0.00 0.00 0.00 40 1013.6
20260506193931 55 17 3.0 12.0 0.00 0.00 0.00 40 1013.7
20260506193418 55 16 3.0 12.0 0.00 0.00 0.00 40 1013.6
20260506192930 55 16 5.0 10.0 0.00 0.00 0.00 40 1013.8
20260506192438 55 17 4.0 8.0 0.00 0.00 0.00 43 1013.7
20260506191947 54 17 3.0 6.0 0.00 0.00 0.00 42 1013.8
20260506191418 54 16 4.0 8.0 0.00 0.00 0.00 42 1013.8
20260506190929 55 17 4.0 8.0 0.00 0.00 0.00 43 1013.8
20260506190435 54 17 1.0 5.0 0.00 0.00 0.00 44 1013.7
20260506185927 54 18 2.0 9.0 0.00 0.00 0.00 42 1013.7
20260506185432 55 17 4.0 10.0 0.00 0.00 0.00 42 1013.7
20260506184940 54 17 4.0 12.0 0.00 0.00 0.00 43 1013.7
20260506184443 54 17 3.0 9.0 0.00 0.00 0.00 45 1013.7
20260506183930 54 19 3.0 9.0 0.00 0.00 0.00 44 1013.8
20260506183440 54 20 4.0 6.0 0.00 0.00 0.00 42 1013.7
20260506182925 54 20 3.0 6.0 0.00 0.00 0.00 42 1013.7
20260506182432 54 19 3.0 10.0 0.00 0.00 0.00 43 1013.7
20260506181941 54 16 4.0 10.0 0.00 0.00 0.00 45 1013.8
20260506181432 54 16 3.0 9.0 0.00 0.00 0.00 43 1013.7
20260506180920 54 18 3.0 8.0 0.00 0.00 0.00 43 1013.6
20260506180429 54 17 4.0 10.0 0.00 0.00 0.00 43 1013.6
20260506175921 54 19 4.0 10.0 0.00 0.00 0.00 41 1013.6
20260506175425 54 16 4.0 8.0 0.00 0.00 0.00 43 1013.7
20260506174936 54 21 2.0 8.0 0.00 0.00 0.00 45 1013.7
20260506174423 54 19 3.0 10.0 0.00 0.00 0.00 42 1013.9
20260506173932 54 21 4.0 10.0 0.00 0.00 0.00 43 1013.9
20260506173440 54 16 3.0 8.0 0.00 0.00 0.00 42 1013.9
20260506172922 54 16 4.0 11.0 0.00 0.00 0.00 43 1014.0
20260506172429 53 27 5.0 11.0 0.00 0.00 0.00 44 1014.0
20260506171916 54 17 5.0 9.0 0.00 0.00 0.00 44 1014.1
20260506171430 54 15 2.0 6.0 0.00 0.00 0.00 44 1013.9
20260506170918 54 17 3.0 8.0 0.00 0.00 0.00 44 1014.1
20260506170425 54 21 1.0 8.0 0.00 0.00 0.00 45 1014.0
20260506165918 54 19 3.0 5.0 0.00 0.00 0.00 44 1014.2
20260506165429 54 20 3.0 8.0 0.00 0.00 0.00 43 1014.2
20260506164919 54 27 3.0 8.0 0.00 0.00 0.00 43 1014.1
20260506164427 54 20 2.0 5.0 0.00 0.00 0.00 45 1014.1
20260506163915 54 22 3.0 8.0 0.00 0.00 0.00 44 1014.1
20260506163424 54 22 3.0 8.0 0.00 0.00 0.00 43 1014.2
20260506162932 54 30 2.0 6.0 0.00 0.00 0.00 45 1014.1
20260506162421 54 26 3.0 6.0 0.00 0.00 0.00 42 1014.0
20260506161928 54 38 2.0 6.0 0.00 0.00 0.00 46 1014.1
20260506161448 54 34 2.0 11.0 0.00 0.00 0.00 43 1013.9
20260506160914 53 38 5.0 11.0 0.00 0.00 0.00 41 1013.9
20260506160422 53 24 2.0 4.0 0.00 0.00 0.00 43 1014.0
20260506155931 53 17 2.0 6.0 0.00 0.00 0.00 45 1013.9
20260506155417 53 20 3.0 6.0 0.00 0.00 0.00 43 1014.1
20260506154927 53 18 2.0 5.0 0.00 0.00 0.00 44 1014.1
20260506154452 53 21 3.0 5.0 0.00 0.00 0.00 43 1014.1
20260506153919 53 17 3.0 5.0 0.00 0.00 0.00 42 1014.1
20260506153428 52 19 2.0 5.0 0.00 0.00 0.00 45 1014.0
20260506152922 52 17 2.0 4.0 0.00 0.00 0.00 43 1014.1
20260506152431 52 19 2.0 4.0 0.00 0.00 0.00 44 1014.0
20260506151918 52 16 2.0 6.0 0.00 0.00 0.00 41 1014.1
20260506151429 52 17 3.0 8.0 0.00 0.00 0.00 44 1014.1
20260506150937 52 17 3.0 8.0 0.00 0.00 0.00 43 1014.2
20260506150447 52 18 3.0 8.0 0.00 0.00 0.00 45 1014.2
20260506145915 52 18 3.0 8.0 0.00 0.00 0.00 45 1014.2
20260506145449 52 16 2.0 8.0 0.00 0.00 0.00 44 1014.1
20260506144914 52 20 1.0 4.0 0.00 0.00 0.00 45 1014.2
20260506144422 52 20 2.0 4.0 0.00 0.00 0.00 45 1014.2
20260506143931 52 19 2.0 6.0 0.00 0.00 0.00 46 1014.2
20260506143419 52 28 2.0 6.0 0.00 0.00 0.00 47 1014.3
20260506142930 52 30 2.0 5.0 0.00 0.00 0.00 48 1014.1
20260506142416 52 360 3.0 5.0 0.00 0.00 0.00 46 1014.2
20260506141924 52 360 2.0 5.0 0.00 0.00 0.00 50 1014.1
20260506141416 51 33 1.0 3.0 0.00 0.00 0.00 51 1014.1
20260506140925 51 32 1.0 3.0 0.00 0.00 0.00 48 1014.2
20260506140414 51 37 0.0 2.0 0.00 0.00 0.00 51 1014.2
20260506135920 50 27 1.0 3.0 0.00 0.00 0.00 51 1014.2
20260506135428 50 40 2.0 3.0 0.00 0.04 0.00 52 1014.0
20260506134918 50 39 1.0 4.0 0.00 0.04 0.00 56 1013.9
20260506134431 50 32 2.0 4.0 0.00 0.04 0.00 56 1013.9
20260506133917 49 52 1.0 2.0 0.00 0.04 0.00 58 1013.7
20260506133450 49 39 0.0 0.0 0.00 0.04 0.00 60 1013.5
20260506132940 48 9 0.0 0.0 0.00 0.04 0.00 63 1013.4
20260506132455 48 9 0.0 0.0 0.00 0.04 0.00 64 1013.4
20260506131942 48 9 0.0 0.0 0.00 0.04 0.00 66 1013.1
20260506131425 47 9 0.0 0.0 0.00 0.04 0.00 66 1013.2
20260506130934 47 9 0.0 0.0 0.00 0.04 0.00 68 1013.1
20260506130422 46 9 0.0 0.0 0.00 0.04 0.00 69 1013.3
20260506125934 46 9 0.0 0.0 0.00 0.04 0.00 69 1013.3
20260506125421 45 9 0.0 0.0 0.00 0.07 0.00 71 1013.2
20260506124952 45 5 0.0 0.0 0.00 0.07 0.00 73 1013.2
20260506124421 44 15 0.0 0.0 0.00 0.07 0.00 74 1013.0
20260506123931 44 15 0.0 0.0 0.00 0.07 0.00 75 1012.9
20260506123440 44 15 0.0 0.0 0.00 0.07 0.00 75 1012.8
20260506122924 43 15 0.0 0.0 0.00 0.07 0.00 75 1012.8
20260506122432 43 15 0.0 0.0 0.00 0.07 0.00 75 1012.9
20260506121919 42 15 0.0 0.0 0.00 0.07 0.00 75 1012.7
20260506121448 42 15 0.0 0.0 0.00 0.07 0.00 76 1012.7
20260506120916 42 15 0.0 0.0 0.00 0.07 0.00 76 1012.7
20260506120424 42 15 0.0 0.0 0.00 0.07 0.00 77 1012.7
20260506115933 41 15 0.0 0.0 0.00 0.07 0.00 77 1012.7
20260506115437 41 15 0.0 0.0 0.00 0.07 0.00 78 1012.6
20260506114924 40 9 0.0 0.0 0.00 0.07 0.00 78 1012.6
20260506114417 40 15 0.0 0.0 0.00 0.07 0.00 78 1012.6
20260506113953 40 15 0.0 0.0 0.00 0.07 0.00 78 1012.6
20260506113440 40 15 0.0 0.0 0.00 0.07 0.00 78 1012.6
20260506112942 40 15 0.0 0.0 0.00 0.07 0.00 78 1012.5
20260506112450 40 15 0.0 0.0 0.00 0.07 0.00 77 1012.5
20260506111916 40 15 0.0 0.0 0.00 0.07 0.00 77 1012.3
20260506111446 40 15 0.0 0.0 0.00 0.07 0.00 76 1012.4
20260506110932 40 15 0.0 0.0 0.00 0.07 0.00 75 1012.4
20260506110420 40 15 0.0 0.0 0.00 0.07 0.00 75 1012.2
20260506105927 40 15 0.0 0.0 0.00 0.07 0.00 74 1012.4
20260506105433 40 15 0.0 0.0 0.00 0.07 0.00 74 1012.2
20260506104922 40 15 0.0 0.0 0.00 0.07 0.00 73 1012.1
20260506104432 40 15 0.0 0.0 0.00 0.07 0.00 73 1012.1
20260506103921 40 15 0.0 0.0 0.00 0.07 0.00 73 1012.0
20260506103428 40 15 0.0 0.0 0.00 0.07 0.00 72 1011.9
20260506102916 40 15 0.0 0.0 0.00 0.07 0.00 72 1011.8
20260506102425 40 15 0.0 0.0 0.00 0.07 0.00 72 1011.7
20260506101933 40 14 0.0 0.0 0.00 0.07 0.00 71 1011.4
20260506101454 41 14 0.0 0.0 0.00 0.07 0.00 71 1011.4
20260506100924 41 14 0.0 0.0 0.00 0.07 0.00 71 1011.4
20260506100429 41 15 0.0 0.0 0.00 0.07 0.00 70 1011.4
20260506095919 41 14 0.0 0.0 0.00 0.07 0.00 70 1011.5
20260506095423 41 14 0.0 0.0 0.00 0.07 0.00 69 1011.5
20260506094931 42 14 0.0 0.0 0.00 0.07 0.00 69 1011.4
20260506094451 42 14 0.0 0.0 0.00 0.07 0.00 69 1011.4
20260506093920 42 14 0.0 0.0 0.00 0.07 0.00 69 1011.6
20260506093427 42 14 0.0 0.0 0.00 0.07 0.00 69 1011.5
20260506092916 42 14 0.0 0.0 0.00 0.07 0.00 68 1011.4
20260506092421 42 14 0.0 0.0 0.00 0.07 0.00 68 1011.6
20260506091928 42 14 0.0 0.0 0.00 0.07 0.00 68 1011.3
20260506091421 42 14 0.0 0.0 0.00 0.07 0.00 67 1011.2
20260506090929 43 14 0.0 0.0 0.00 0.07 0.00 67 1011.3
20260506090416 43 14 0.0 0.0 0.00 0.07 0.00 66 1011.4
20260506085945 43 14 0.0 0.0 0.00 0.07 0.00 65 1011.4
20260506085427 43 14 0.0 0.0 0.00 0.07 0.00 64 1011.7
20260506084915 43 14 0.0 0.0 0.00 0.07 0.00 64 1011.7
20260506084448 43 14 0.0 0.0 0.00 0.07 0.00 63 1011.6
20260506083914 44 10 0.0 0.0 0.00 0.07 0.00 62 1011.2
20260506083420 44 9 0.0 0.0 0.00 0.07 0.00 62 1011.3
20260506082931 44 9 0.0 0.0 0.00 0.07 0.00 61 1011.2
20260506082439 44 9 0.0 0.0 0.00 0.07 0.00 61 1011.2
20260506081954 44 9 0.0 0.0 0.00 0.07 0.00 61 1011.0
20260506081425 45 9 0.0 0.0 0.00 0.07 0.00 60 1011.1
20260506080932 45 9 0.0 0.0 0.00 0.07 0.00 59 1011.2
20260506080421 45 9 0.0 0.0 0.00 0.07 0.00 59 1011.1
20260506073432 47 10 1.0 3.0 0.00 0.07 0.00 56 1011.0
20260506072924 47 9 0.0 4.0 0.00 0.07 0.00 55 1011.0
20260506072433 47 11 1.0 5.0 0.00 0.07 0.00 55 1010.9
20260506071940 47 9 2.0 5.0 0.00 0.07 0.00 54 1010.9
20260506071431 47 10 2.0 3.0 0.00 0.07 0.00 54 1010.8
20260506070918 47 15 1.0 3.0 0.00 0.07 0.00 54 1010.6
20260506070426 47 12 1.0 4.0 0.00 0.07 0.00 53 1010.6
20260506062432 48 9 1.0 2.0 0.00 0.07 0.00 55 1010.6
20260506061919 48 5 0.0 3.0 0.00 0.07 0.00 55 1010.8
20260506061432 48 5 2.0 3.0 0.00 0.07 0.00 55 1010.6
20260506060941 48 9 2.0 3.0 0.00 0.07 0.00 55 1010.6
20260506060448 48 11 0.0 0.0 0.00 0.07 0.00 55 1010.8
20260506051416 50 9 1.0 3.0 0.00 0.07 0.07 48 1010.4
20260506050926 51 9 1.0 3.0 0.00 0.07 0.07 48 1010.4
20260506050433 51 9 1.0 5.0 0.00 0.07 0.07 49 1010.3
20260506044945 51 111 1.0 3.0 0.00 0.07 0.07 48 1010.2
20260506044433 51 5 2.0 3.0 0.00 0.07 0.07 48 1010.1
20260506043943 51 5 1.0 3.0 0.00 0.07 0.07 49 1010.2
20260506043431 51 30 2.0 3.0 0.00 0.07 0.07 49 1010.2
20260506042942 51 5 2.0 3.0 0.00 0.07 0.07 50 1010.3
20260506042452 51 130 2.0 4.0 0.00 0.07 0.07 51 1010.2
20260506041915 51 134 2.0 4.0 0.00 0.07 0.07 52 1010.2
20260506041429 51 130 1.0 4.0 0.00 0.07 0.07 52 1010.3
20260506040917 51 143 2.0 4.0 0.00 0.07 0.07 53 1010.4
20260506040449 51 135 1.0 2.0 0.00 0.07 0.07 55 1010.4
20260506035919 51 93 0.0 2.0 0.00 0.07 0.07 55 1010.4
20260506035427 51 20 0.0 0.0 0.00 0.07 0.07 56 1010.3
20260506034915 51 20 0.0 0.0 0.00 0.07 0.07 57 1010.1
20260506034429 51 20 0.0 0.0 0.00 0.07 0.07 55 1010.1
20260506033919 52 18 0.0 0.0 0.00 0.07 0.07 55 1010.1
20260506033430 52 17 0.0 0.0 0.00 0.07 0.07 54 1010.1
20260506032959 52 18 0.0 0.0 0.00 0.07 0.07 53 1010.1
20260506032446 52 18 0.0 0.0 0.00 0.07 0.07 53 1010.1
20260506031931 52 18 0.0 0.0 0.00 0.07 0.07 53 1009.9
20260506031422 52 18 0.0 0.0 0.00 0.07 0.07 52 1009.8
20260506030925 52 18 0.0 0.0 0.00 0.07 0.07 51 1009.8
20260506030432 52 19 0.0 0.0 0.00 0.07 0.07 52 1009.8
20260506025920 52 17 0.0 0.0 0.00 0.07 0.07 52 1009.7
20260506025430 52 18 0.0 0.0 0.00 0.07 0.07 52 1009.7
20260506024917 52 18 0.0 0.0 0.00 0.07 0.07 52 1009.7
20260506024430 52 18 0.0 0.0 0.00 0.07 0.07 51 1009.7
20260506023919 52 17 0.0 0.0 0.00 0.07 0.07 51 1009.7
20260506023427 52 18 0.0 0.0 0.00 0.07 0.07 51 1009.9
20260506022917 52 18 0.0 0.0 0.00 0.07 0.07 51 1009.9
20260506022427 52 18 0.0 0.0 0.00 0.07 0.07 51 1009.8
20260506021916 53 18 0.0 0.0 0.00 0.07 0.07 50 1009.7
20260506021426 53 18 0.0 0.0 0.00 0.07 0.07 50 1009.5
20260506020916 53 18 0.0 0.0 0.00 0.07 0.07 50 1009.5
20260506020449 53 18 0.0 0.0 0.00 0.07 0.07 49 1009.4
20260506015916 53 18 0.0 0.0 0.00 0.07 0.07 49 1009.4
20260506015425 53 17 0.0 0.0 0.00 0.07 0.07 49 1009.3
20260506014915 53 17 0.0 0.0 0.00 0.07 0.07 48 1009.2
20260506014425 53 17 0.0 0.0 0.00 0.07 0.07 48 1009.1
20260506013934 53 17 0.0 0.0 0.00 0.07 0.07 48 1009.1
20260506013421 53 17 0.0 0.0 0.00 0.07 0.07 47 1009.0
20260506012932 53 17 0.0 0.0 0.00 0.07 0.07 47 1009.0
20260506012441 53 17 0.0 0.0 0.00 0.07 0.07 47 1008.8
20260506011928 54 17 0.0 0.0 0.00 0.07 0.07 46 1008.7
20260506011419 54 17 0.0 0.0 0.00 0.07 0.07 46 1008.7
20260506010927 54 17 0.0 0.0 0.00 0.07 0.07 45 1008.8
20260506010417 54 17 0.0 0.0 0.00 0.07 0.07 46 1008.7
20260506005922 54 17 0.0 1.0 0.00 0.07 0.07 45 1008.6
20260506005432 54 17 0.0 2.0 0.00 0.07 0.07 45 1008.6
20260506004939 54 17 0.0 2.0 0.00 0.07 0.07 45 1008.4
20260506004429 54 17 1.0 2.0 0.00 0.07 0.07 45 1008.3
20260506003916 54 16 1.0 2.0 0.00 0.07 0.07 45 1008.4
20260506003420 54 16 0.0 3.0 0.00 0.07 0.07 45 1008.4
20260506002933 54 21 1.0 3.0 0.00 0.07 0.07 44 1008.2
20260506002422 54 25 0.0 2.0 0.00 0.07 0.07 44 1008.2
20260506001932 54 20 1.0 4.0 0.00 0.07 0.07 44 1008.2
20260506001419 54 20 1.0 4.0 0.00 0.07 0.07 44 1008.3
20260506000928 54 22 1.0 4.0 0.00 0.07 0.07 44 1008.4
20260506000417 55 19 1.0 4.0 0.00 0.07 0.07 43 1008.3
20260505235930 55 17 2.0 4.0 0.00 0.07 0.07 42 1008.3
20260505235415 55 17 2.0 4.0 0.00 0.07 0.07 42 1008.1
20260505234919 55 18 1.0 4.0 0.00 0.07 0.07 42 1008.1
20260505234431 55 17 2.0 5.0 0.00 0.07 0.07 41 1008.2
20260505233919 55 19 2.0 4.0 0.00 0.07 0.07 40 1008.2
20260505233428 55 18 2.0 4.0 0.00 0.07 0.07 41 1008.4
20260505232920 55 17 2.0 4.0 0.00 0.07 0.07 41 1008.3
20260505232427 55 17 0.0 4.0 0.00 0.07 0.07 44 1008.5
20260505231916 55 17 2.0 6.0 0.00 0.07 0.07 41 1008.3
20260505231427 55 19 3.0 6.0 0.00 0.07 0.07 40 1008.3
20260505230917 55 17 3.0 6.0 0.00 0.07 0.07 41 1008.4
20260505230427 55 17 1.0 5.0 0.00 0.07 0.07 42 1008.3
20260505225939 55 15 2.0 5.0 0.00 0.07 0.07 41 1008.3
20260505225448 56 15 2.0 5.0 0.00 0.07 0.07 40 1008.3
20260505224916 56 15 1.0 6.0 0.00 0.07 0.07 43 1008.4
20260505224424 56 14 2.0 6.0 0.00 0.07 0.07 41 1008.5
20260505223934 56 16 1.0 4.0 0.00 0.07 0.07 40 1008.7
20260505223424 56 16 1.0 4.0 0.00 0.07 0.07 43 1008.8
20260505222930 56 15 1.0 4.0 0.00 0.07 0.07 40 1008.7
20260505222436 56 15 2.0 5.0 0.00 0.07 0.07 40 1008.6
20260505221944 56 22 3.0 5.0 0.00 0.07 0.07 40 1008.6
20260505221435 56 18 2.0 5.0 0.00 0.07 0.07 41 1008.5
20260505220943 55 16 2.0 5.0 0.00 0.07 0.07 39 1008.4
20260505220432 55 15 2.0 4.0 0.00 0.07 0.07 41 1008.5
20260505215953 55 15 2.0 6.0 0.00 0.07 0.07 39 1008.6
20260505215442 55 16 3.0 6.0 0.00 0.07 0.07 38 1008.7
20260505214948 55 15 3.0 8.0 0.00 0.07 0.07 37 1008.7
20260505214417 55 16 3.0 8.0 0.00 0.07 0.07 38 1008.7
20260505213925 55 15 3.0 6.0 0.00 0.07 0.07 37 1008.7
20260505213431 55 17 3.0 5.0 0.00 0.07 0.07 37 1008.7
20260505212923 55 16 3.0 6.0 0.00 0.07 0.07 37 1008.8